Date String (YYYY-MM-DD hh:mm:ss) UTC,Instrument flags,Ambient pressure (hPa),Sample flow (lpm),Bypass flow (lpm),Sample temperature (°C),Ambient temperature (°C),ASC tube jacket temperature (°C),LED temperature (°C),Box temperature (°C),Sample RH (%),Span deviation,Mass concentration (μg/m³),Mass concentration (μg/m³),Mass concentration (μg/m³)
DateTimeUTC,F1_M11,P_M11,Q1_M11,Q2_M11,T1_M11,T2_M11,T3_M11,T4_M11,T5_M11,U1_M11,ZSPAN_M11,X2_M11,X0_M11,X1_M11
2022-09-19 10:00:00,,0825.7,5.01,0.00,30.8,29.4,00.0,39.6,32.6,18.9,0000.0,0005.27,0011.25,0004.70
2022-09-19 10:01:00,,0825.9,4.99,0.00,30.8,29.4,00.0,39.6,32.6,19.0,0000.0,0005.29,0011.88,0004.71
2022-09-19 10:02:00,,0825.7,5.02,0.00,30.8,28.9,00.0,39.6,32.6,18.9,0000.0,0005.32,0011.76,0004.72
2022-09-19 10:03:00,,0825.7,5.00,0.00,30.8,27.4,00.0,39.5,32.5,18.9,0000.0,0005.34,0011.43,0004.74
2022-09-19 10:04:00,,0825.6,5.00,0.00,30.7,26.9,00.0,39.4,32.4,18.8,0000.0,0005.36,0011.80,0004.75
2022-09-19 10:05:00,,0825.7,5.00,0.00,30.6,27.0,00.0,39.4,32.1,18.8,0000.0,0005.42,0011.55,0004.76
2022-09-19 10:06:00,,0825.7,5.01,0.00,30.5,27.3,00.0,39.3,32.0,18.9,0000.0,0005.40,0011.05,0004.74
2022-09-19 10:07:00,,0825.7,5.00,0.00,30.5,27.7,00.0,39.3,32.0,18.9,0000.0,0005.37,0011.01,0004.72
2022-09-19 10:08:00,,0825.7,5.00,0.00,30.4,27.9,00.0,39.3,32.0,18.8,0000.0,0005.40,0011.55,0004.71
2022-09-19 10:09:00,,0825.7,5.00,0.00,30.4,28.1,00.0,39.2,32.0,18.8,0000.0,0005.39,0011.20,0004.70
2022-09-19 10:10:00,,0825.7,5.01,0.00,30.4,28.3,00.0,39.2,32.0,18.7,0000.0,0005.39,0011.34,0004.69
2022-09-19 10:11:00,,0825.7,4.99,0.00,30.4,28.4,00.0,39.2,32.0,18.8,0000.0,0005.42,0011.72,0004.68
2022-09-19 10:12:00,,0825.7,5.01,0.00,30.3,28.5,00.0,39.2,32.1,18.8,0000.0,0005.41,0011.97,0004.68
2022-09-19 10:13:00,,0825.7,5.01,0.00,30.3,28.6,00.0,39.2,32.1,18.8,0000.0,0005.37,0012.13,0004.68
2022-09-19 10:14:00,,0825.7,5.01,0.00,30.3,28.7,00.0,39.2,32.1,18.7,0000.0,0005.37,0011.98,0004.67
2022-09-19 10:15:00,,0825.7,4.99,0.00,30.3,28.7,00.0,39.2,32.1,18.5,0000.0,0005.35,0011.85,0004.66
2022-09-19 10:16:00,,0825.7,5.01,0.00,30.3,28.8,00.0,39.2,32.1,18.2,0000.0,0005.31,0012.09,0004.65
2022-09-19 10:17:00,,0825.6,4.99,0.00,30.4,28.8,00.0,39.2,32.1,18.1,0000.0,0005.29,0012.22,0004.64
2022-09-19 10:18:00,,0825.6,5.01,0.00,30.4,28.8,00.0,39.2,32.1,18.1,0000.0,0005.27,0011.78,0004.63
2022-09-19 10:19:00,,0825.7,5.00,0.00,30.4,28.9,00.0,39.2,32.1,18.0,0000.0,0005.22,0011.58,0004.62
2022-09-19 10:20:00,,0825.7,5.01,0.00,30.4,28.9,00.0,39.2,32.1,18.0,0000.0,0005.18,0011.58,0004.60
2022-09-19 10:21:00,,0825.7,4.98,0.00,30.4,28.9,00.0,39.2,32.1,17.9,0000.0,0005.15,0011.55,0004.59
2022-09-19 10:22:00,,0825.8,5.01,0.00,30.4,28.9,00.0,39.2,32.1,18.0,0000.0,0005.14,0011.16,0004.57
2022-09-19 10:23:00,,0825.7,4.99,0.00,30.4,28.9,00.0,39.2,32.2,18.0,0000.0,0005.15,0010.86,0004.56
2022-09-19 10:24:00,,0825.7,5.01,0.00,30.4,28.9,00.0,39.2,32.2,18.0,0000.0,0005.15,0011.06,0004.54
2022-09-19 10:25:00,,0825.7,4.99,0.00,30.4,29.0,00.0,39.2,32.2,18.0,0000.0,0005.13,0011.31,0004.52
2022-09-19 10:26:00,,0825.7,5.00,0.00,30.4,29.0,00.0,39.2,32.2,18.0,0000.0,0005.12,0011.28,0004.51
2022-09-19 10:27:00,,0825.7,5.01,0.00,30.4,29.0,00.0,39.2,32.2,18.0,0000.0,0005.15,0011.30,0004.51
2022-09-19 10:28:00,,0825.7,4.99,0.00,30.5,29.0,00.0,39.2,32.2,18.0,0000.0,0005.17,0011.18,0004.52
2022-09-19 10:29:00,,0825.7,4.99,0.00,30.5,29.1,00.0,39.2,32.3,18.0,0000.0,0005.19,0011.19,0004.54
2022-09-19 10:30:00,,0825.7,5.01,0.00,30.5,29.1,00.0,39.2,32.3,18.0,0000.0,0005.19,0010.62,0004.53
2022-09-19 10:31:00,,0825.6,5.00,0.00,30.5,29.1,00.0,39.2,32.2,18.0,0000.0,0005.20,0011.02,0004.53
2022-09-19 10:32:00,,0825.6,5.00,0.00,30.5,29.1,00.0,39.2,32.3,18.0,0000.0,0005.21,0010.97,0004.53
2022-09-19 10:33:00,,0825.6,5.00,0.00,30.5,29.1,00.0,39.2,32.3,17.9,0000.0,0005.20,0010.93,0004.53
2022-09-19 10:34:00,,0825.6,5.00,0.00,30.5,29.1,00.0,39.3,32.3,18.0,0000.0,0005.20,0010.39,0004.52
2022-09-19 10:35:00,,0825.6,5.00,0.00,30.5,29.2,00.0,39.3,32.3,17.8,0000.0,0005.20,0010.06,0004.52
2022-09-19 10:36:00,,0825.6,5.00,0.00,30.5,29.1,00.0,39.3,32.3,17.8,0000.0,0005.23,0010.36,0004.52
2022-09-19 10:37:00,,0825.6,4.99,0.00,30.5,29.1,00.0,39.3,32.3,17.7,0000.0,0005.21,0010.37,0004.51
2022-09-19 10:38:00,,0825.6,5.01,0.00,30.5,29.2,00.0,39.3,32.3,17.6,0000.0,0005.16,0010.29,0004.49
2022-09-19 10:39:00,,0825.6,4.99,0.00,30.6,29.2,00.0,39.3,32.3,17.6,0000.0,0005.14,0011.00,0004.48
2022-09-19 10:40:00,,0825.7,5.01,0.00,30.6,29.2,00.0,39.3,32.4,17.7,0000.0,0005.10,0011.08,0004.45
2022-09-19 10:41:00,,0825.7,5.01,0.00,30.6,29.2,00.0,39.3,32.4,17.5,0000.0,0005.11,0011.35,0004.46
2022-09-19 10:42:00,,0825.7,4.99,0.00,30.6,29.2,00.0,39.3,32.4,16.9,0000.0,0005.05,0010.80,0004.44
2022-09-19 10:43:00,,0825.7,4.99,0.00,30.6,29.2,00.0,39.3,32.4,17.0,0000.0,0004.99,0010.60,0004.41
2022-09-19 10:44:00,,0825.7,5.01,0.00,30.6,29.2,00.0,39.4,32.4,17.5,0000.0,0004.99,0011.15,0004.40
2022-09-19 10:45:00,,0825.7,4.99,0.00,30.6,29.2,00.0,39.4,32.4,17.8,0000.0,0004.95,0011.13,0004.39
2022-09-19 10:46:00,,0825.7,5.01,0.00,30.6,29.2,00.0,39.4,32.4,17.8,0000.0,0004.95,0011.80,0004.39
2022-09-19 10:47:00,,0825.7,4.99,0.00,30.6,29.2,00.0,39.4,32.4,17.7,0000.0,0004.89,0011.30,0004.40
2022-09-19 10:48:00,,0825.7,5.01,0.00,30.6,29.2,00.0,39.4,32.4,17.7,0000.0,0004.90,0011.76,0004.40
2022-09-19 10:49:00,,0825.7,5.00,0.00,30.6,29.2,00.0,39.4,32.4,17.6,0000.0,0004.89,0012.44,0004.42
2022-09-19 10:50:00,,0825.7,5.01,0.00,30.6,29.2,00.0,39.4,32.4,17.4,0000.0,0004.86,0011.43,0004.42
2022-09-19 10:51:00,,0825.7,4.99,0.00,30.6,29.2,00.0,39.4,32.4,17.2,0000.0,0004.87,0011.31,0004.42
2022-09-19 10:52:00,,0825.7,5.01,0.00,30.6,29.2,00.0,39.4,32.4,17.1,0000.0,0004.83,0010.92,0004.41
2022-09-19 10:53:00,,0825.7,4.99,0.00,30.7,29.2,00.0,39.4,32.4,17.0,0000.0,0004.84,0011.11,0004.40
2022-09-19 10:54:00,,0825.7,4.99,0.00,30.7,29.2,00.0,39.4,32.4,17.0,0000.0,0004.87,0011.42,0004.41
2022-09-19 10:55:00,,0825.7,5.01,0.00,30.7,29.2,00.0,39.4,32.4,17.0,0000.0,0004.85,0011.17,0004.39
2022-09-19 10:56:00,,0825.7,4.99,0.00,30.7,29.2,00.0,39.4,32.4,16.9,0000.0,0004.82,0011.13,0004.38
2022-09-19 10:57:00,,0825.7,5.00,0.00,30.7,29.2,00.0,39.4,32.4,16.9,0000.0,0004.78,0010.66,0004.35
2022-09-19 10:58:00,,0825.7,5.00,0.00,30.7,29.2,00.0,39.4,32.4,16.9,0000.0,0004.78,0010.55,0004.32
2022-09-19 10:59:00,,0825.7,5.00,0.00,30.7,29.2,00.0,39.4,32.4,16.9,0000.0,0004.73,0009.66,0004.28
